TimeAKDT,TemperatureF,Dew PointF,Humidity,Sea Level PressureIn,VisibilityMPH,Wind Direction,Wind SpeedMPH,Gust SpeedMPH,PrecipitationIn,Events,Conditions,WindDirDegrees,DateUTC
12:53 AM,57.9,51.1,78,30.08,10.0,NNE,4.6,-,N/A,,Clear,30,2013-07-24 08:53:00
1:53 AM,55.9,51.1,84,30.08,10.0,Calm,Calm,-,N/A,,Scattered Clouds,0,2013-07-24 09:53:00
2:53 AM,54.0,50.0,86,30.07,10.0,Calm,Calm,-,N/A,,Partly Cloudy,0,2013-07-24 10:53:00
3:53 AM,53.1,48.9,86,30.09,10.0,Calm,Calm,-,N/A,,Partly Cloudy,0,2013-07-24 11:53:00
4:53 AM,52.0,48.9,89,30.09,10.0,NE,3.5,-,N/A,,Clear,50,2013-07-24 12:53:00
5:53 AM,51.1,48.9,92,30.09,10.0,Calm,Calm,-,N/A,,Clear,0,2013-07-24 13:53:00
6:53 AM,55.0,50.0,83,30.07,10.0,Calm,Calm,-,N/A,,Partly Cloudy,0,2013-07-24 14:53:00
7:53 AM,55.0,50.0,83,30.07,10.0,Calm,Calm,-,N/A,,Partly Cloudy,0,2013-07-24 15:53:00
8:53 AM,54.0,50.0,86,30.06,10.0,Calm,Calm,-,N/A,,Clear,0,2013-07-24 16:53:00
9:53 AM,57.9,51.1,78,30.06,10.0,Calm,Calm,-,N/A,,Clear,0,2013-07-24 17:53:00
10:53 AM,57.9,51.1,78,30.06,10.0,SW,3.5,-,N/A,,Scattered Clouds,230,2013-07-24 18:53:00
11:53 AM,57.9,51.1,78,30.06,10.0,SW,5.8,-,N/A,,Overcast,220,2013-07-24 19:53:00
12:53 PM,57.0,51.1,81,30.05,10.0,SW,13.8,-,N/A,,Overcast,220,2013-07-24 20:53:00
1:53 PM,57.9,52.0,81,30.04,10.0,SW,18.4,-,N/A,,Mostly Cloudy,220,2013-07-24 21:53:00
2:53 PM,62.1,53.1,72,30.02,10.0,SSW,23.0,32.2,N/A,,Overcast,200,2013-07-24 22:53:00
3:53 PM,61.0,53.1,75,30.03,10.0,SSW,23.0,32.2,0.00,,Overcast,200,2013-07-24 23:53:00
4:53 PM,60.1,52.0,75,30.06,4.0,Variable,5.8,19.6,0.04,Rain,Rain,0,2013-07-25 00:53:00
5:23 PM,57.2,53.6,88,30.07,1.8,WSW,3.5,-,0.09,Rain,Rain,250,2013-07-25 01:23:00
5:37 PM,55.4,53.6,94,30.07,2.0,Calm,Calm,-,0.15,Rain,Rain,0,2013-07-25 01:37:00
5:48 PM,57.2,53.6,88,30.06,3.0,Calm,Calm,-,0.19,Rain,Rain,0,2013-07-25 01:48:00
5:53 PM,57.0,54.0,89,30.06,2.5,Calm,Calm,-,0.20,Rain,Rain,0,2013-07-25 01:53:00
6:10 PM,57.2,53.6,88,30.06,4.0,Calm,Calm,-,0.03,Rain,Light Rain,0,2013-07-25 02:10:00
6:53 PM,57.9,55.0,90,30.06,6.0,Calm,Calm,-,0.06,Rain,Light Rain,0,2013-07-25 02:53:00
7:53 PM,57.0,54.0,89,30.06,10.0,NW,3.5,-,0.02,,Overcast,320,2013-07-25 03:53:00
8:53 PM,57.0,54.0,89,30.07,10.0,Calm,Calm,-,0.00,,Overcast,0,2013-07-25 04:53:00
9:53 PM,57.0,55.0,93,30.06,10.0,Calm,Calm,-,0.00,Rain,Light Rain,0,2013-07-25 05:53:00
10:02 PM,55.4,53.6,94,30.06,1.8,Calm,Calm,-,N/A,,Overcast,0,2013-07-25 06:02:00
10:10 PM,55.4,53.6,94,30.06,1.2,Calm,Calm,-,N/A,,Overcast,0,2013-07-25 06:10:00
10:13 PM,55.4,53.6,94,30.06,2.0,Calm,Calm,-,N/A,,Overcast,0,2013-07-25 06:13:00
10:20 PM,55.4,53.6,94,30.06,5.0,Calm,Calm,-,N/A,,Overcast,0,2013-07-25 06:20:00
10:40 PM,55.4,53.6,94,30.05,1.8,Calm,Calm,-,N/A,,Overcast,0,2013-07-25 06:40:00
10:47 PM,55.4,53.6,94,30.05,0.8,Calm,Calm,-,N/A,,Overcast,0,2013-07-25 06:47:00
10:48 PM,55.0,53.1,93,30.06,0.8,Calm,Calm,-,N/A,,Overcast,0,2013-07-25 06:48:00
11:00 PM,55.4,53.6,94,30.05,0.5,Calm,Calm,-,N/A,Fog,Fog,0,2013-07-25 07:00:00
11:29 PM,53.6,53.6,100,30.07,0.8,Calm,Calm,-,N/A,,Overcast,0,2013-07-25 07:29:00
11:42 PM,53.6,51.8,94,30.06,0.2,Calm,Calm,-,N/A,Fog,Fog,0,2013-07-25 07:42:00
11:53 PM,54.0,53.1,97,30.06,0.2,Calm,Calm,-,N/A,Fog,Fog,0,2013-07-25 07:53:00